FLT555 LGTS-LGSK

Flight info

Callsign FLT555
Flight time 0h 32m
Altitude 7000
Route TSL
Aircraft C408/L-VGD/C

Departure

Time 2026-04-19 04:13
Airport Thessaloniki Macedonia International Airport (LGTS)

Arrival

Time 2026-04-19 04:45
Airport Skiathos Island National Airport (LGSK)
Time Latitude Longitude Altitude Speed Heading
2026-04-19 03:58 40.52164 22.97985 12 ft 0 kts 336°
2026-04-19 04:08 40.52168 22.97957 12 ft 12 kts 249°
2026-04-19 04:08 40.52084 22.97861 12 ft 8 kts 214°
2026-04-19 04:08 40.52025 22.97804 12 ft 13 kts 232°
2026-04-19 04:09 40.52028 22.97695 12 ft 14 kts 281°
2026-04-19 04:09 40.52054 22.97552 11 ft 18 kts 285°
2026-04-19 04:09 40.52087 22.97378 11 ft 21 kts 280°
2026-04-19 04:09 40.52125 22.97177 10 ft 24 kts 285°
2026-04-19 04:10 40.52170 22.96952 10 ft 26 kts 284°
2026-04-19 04:10 40.52136 22.96824 10 ft 0 kts 233°
2026-04-19 04:10 40.52115 22.96787 10 ft 19 kts 233°
2026-04-19 04:10 40.52088 22.96581 10 ft 28 kts 283°
2026-04-19 04:11 40.52135 22.96316 12 ft 31 kts 282°
2026-04-19 04:11 40.52194 22.96036 10 ft 25 kts 286°
2026-04-19 04:11 40.52183 22.95977 9 ft 0 kts 155°
2026-04-19 04:11 40.52170 22.96044 9 ft 8 kts 108°
2026-04-19 04:12 40.52169 22.96047 9 ft 0 kts 108°
2026-04-19 04:12 40.52159 22.96091 10 ft 25 kts 104°
2026-04-19 04:12 40.52074 22.96553 10 ft 78 kts 103°
2026-04-19 04:12 40.51909 22.97425 45 ft 113 kts 104°
2026-04-19 04:13 40.51725 22.98456 315 ft 118 kts 103°
2026-04-19 04:13 40.51504 22.99528 633 ft 118 kts 107°
2026-04-19 04:13 40.51293 23.00557 1021 ft 117 kts 103°
2026-04-19 04:13 40.51089 23.01588 1401 ft 116 kts 104°
2026-04-19 04:14 40.50887 23.02616 1793 ft 115 kts 105°
2026-04-19 04:14 40.50690 23.03631 2183 ft 113 kts 106°
2026-04-19 04:14 40.50497 23.04622 2576 ft 111 kts 105°
2026-04-19 04:14 40.50238 23.05571 2894 ft 113 kts 132°
2026-04-19 04:15 40.49555 23.06059 3197 ft 115 kts 170°
2026-04-19 04:15 40.48792 23.05807 3503 ft 117 kts 216°
2026-04-19 04:15 40.48310 23.04950 3817 ft 119 kts 241°
2026-04-19 04:15 40.47880 23.04020 4135 ft 122 kts 240°
2026-04-19 04:16 40.47438 23.03032 4459 ft 130 kts 240°
2026-04-19 04:16 40.46965 23.01972 4804 ft 141 kts 241°
2026-04-19 04:16 40.46447 23.00831 5142 ft 150 kts 237°
2026-04-19 04:16 40.45943 23.00193 5353 ft 156 kts 213°
2026-04-19 04:17 40.44900 22.99737 5677 ft 163 kts 183°
2026-04-19 04:17 40.43789 23.00040 6002 ft 166 kts 158°
2026-04-19 04:17 40.42698 23.00593 6329 ft 169 kts 158°
2026-04-19 04:17 40.41589 23.01148 6640 ft 172 kts 158°
2026-04-19 04:18 40.40462 23.01711 6935 ft 174 kts 158°
2026-04-19 04:18 40.39325 23.02278 7099 ft 183 kts 159°
2026-04-19 04:18 40.38091 23.02892 7111 ft 194 kts 159°
2026-04-19 04:18 40.36807 23.03531 7110 ft 199 kts 159°
2026-04-19 04:19 40.35500 23.04181 7110 ft 201 kts 159°
2026-04-19 04:19 40.34186 23.04835 7104 ft 202 kts 159°
2026-04-19 04:19 40.32872 23.05489 7106 ft 202 kts 159°
2026-04-19 04:19 40.31555 23.06143 7099 ft 202 kts 159°
2026-04-19 04:20 40.30237 23.06799 7104 ft 202 kts 159°
2026-04-19 04:20 40.28937 23.07445 7101 ft 202 kts 159°
2026-04-19 04:20 40.27619 23.08099 7099 ft 202 kts 159°
2026-04-19 04:20 40.26302 23.08753 7099 ft 202 kts 159°
2026-04-19 04:21 40.24986 23.09406 7094 ft 202 kts 159°
2026-04-19 04:21 40.23669 23.10059 7094 ft 202 kts 159°
2026-04-19 04:21 40.22357 23.10710 7096 ft 202 kts 159°
2026-04-19 04:21 40.21041 23.11362 7097 ft 202 kts 159°
2026-04-19 04:22 40.19729 23.12012 7096 ft 202 kts 159°
2026-04-19 04:22 40.18415 23.12663 7095 ft 202 kts 159°
2026-04-19 04:22 40.17102 23.13313 7092 ft 202 kts 159°
2026-04-19 04:22 40.15806 23.13954 7093 ft 202 kts 159°
2026-04-19 04:23 40.14492 23.14603 7095 ft 202 kts 159°
2026-04-19 04:23 40.13179 23.15253 7093 ft 202 kts 159°
2026-04-19 04:23 40.11865 23.15902 7095 ft 202 kts 159°
2026-04-19 04:23 40.10553 23.16550 7095 ft 202 kts 159°
2026-04-19 04:24 40.09239 23.17198 7093 ft 202 kts 159°
2026-04-19 04:24 40.07926 23.17847 7094 ft 202 kts 159°
2026-04-19 04:24 40.06603 23.18500 7016 ft 205 kts 159°
2026-04-19 04:24 40.05279 23.19152 7009 ft 203 kts 159°
2026-04-19 04:25 40.03964 23.19801 7008 ft 202 kts 159°
2026-04-19 04:25 40.02654 23.20446 7007 ft 201 kts 159°
2026-04-19 04:25 40.01362 23.21083 7006 ft 201 kts 159°
2026-04-19 04:25 40.00050 23.21728 7006 ft 201 kts 159°
2026-04-19 04:26 39.98742 23.22371 7006 ft 201 kts 159°
2026-04-19 04:26 39.97436 23.23015 7006 ft 201 kts 159°
2026-04-19 04:26 39.96129 23.23658 7003 ft 201 kts 159°
2026-04-19 04:26 39.94819 23.24301 7003 ft 201 kts 159°
2026-04-19 04:27 39.93512 23.24943 7006 ft 201 kts 159°
2026-04-19 04:27 39.92205 23.25585 7006 ft 201 kts 159°
2026-04-19 04:27 39.90896 23.26228 7006 ft 201 kts 159°
2026-04-19 04:27 39.89588 23.26870 7006 ft 201 kts 159°
2026-04-19 04:28 39.88278 23.27513 7007 ft 201 kts 159°
2026-04-19 04:28 39.86983 23.28147 7007 ft 201 kts 159°
2026-04-19 04:28 39.85675 23.28788 7007 ft 201 kts 159°
2026-04-19 04:28 39.84368 23.29429 7007 ft 201 kts 159°
2026-04-19 04:29 39.83060 23.30069 7006 ft 201 kts 159°
2026-04-19 04:29 39.81752 23.30710 7007 ft 201 kts 159°
2026-04-19 04:29 39.80443 23.31350 7006 ft 201 kts 159°
2026-04-19 04:29 39.79137 23.31989 7007 ft 201 kts 159°
2026-04-19 04:30 39.77828 23.32629 7003 ft 201 kts 159°
2026-04-19 04:30 39.76514 23.33271 7002 ft 202 kts 159°
2026-04-19 04:30 39.75198 23.33915 7002 ft 202 kts 159°
2026-04-19 04:30 39.73881 23.34558 7003 ft 202 kts 158°
2026-04-19 04:31 39.72579 23.35193 7006 ft 202 kts 158°
2026-04-19 04:31 39.71260 23.35836 7006 ft 202 kts 159°
2026-04-19 04:31 39.69942 23.36479 7006 ft 202 kts 159°
2026-04-19 04:31 39.68622 23.37123 7007 ft 202 kts 159°
2026-04-19 04:32 39.67299 23.37768 7007 ft 202 kts 159°
2026-04-19 04:32 39.65980 23.38410 7007 ft 202 kts 158°
2026-04-19 04:32 39.64659 23.39053 7007 ft 202 kts 159°
2026-04-19 04:32 39.63337 23.39697 7007 ft 202 kts 159°
2026-04-19 04:33 39.62034 23.40331 7004 ft 202 kts 159°
2026-04-19 04:33 39.60713 23.40973 7004 ft 202 kts 159°
2026-04-19 04:33 39.59394 23.41614 7003 ft 203 kts 159°
2026-04-19 04:33 39.58070 23.42258 7004 ft 202 kts 159°
2026-04-19 04:34 39.56752 23.42898 7013 ft 202 kts 158°
2026-04-19 04:34 39.55423 23.43544 7012 ft 204 kts 158°
2026-04-19 04:34 39.54091 23.44189 7015 ft 205 kts 158°
2026-04-19 04:34 39.52765 23.44834 7015 ft 206 kts 158°
2026-04-19 04:35 39.51418 23.45486 7013 ft 206 kts 158°
2026-04-19 04:35 39.50073 23.46138 7013 ft 206 kts 158°
2026-04-19 04:35 39.48737 23.46785 7010 ft 197 kts 158°
2026-04-19 04:35 39.47465 23.47401 6778 ft 195 kts 158°
2026-04-19 04:36 39.46195 23.48017 6508 ft 195 kts 158°
2026-04-19 04:36 39.44967 23.48609 6205 ft 180 kts 158°
2026-04-19 04:36 39.43818 23.49165 5915 ft 174 kts 158°
2026-04-19 04:36 39.42691 23.49712 5615 ft 172 kts 158°
2026-04-19 04:37 39.41594 23.50242 5334 ft 170 kts 158°
2026-04-19 04:37 39.40479 23.50781 5048 ft 168 kts 158°
2026-04-19 04:37 39.39403 23.51303 4775 ft 167 kts 158°
2026-04-19 04:37 39.38320 23.51827 4489 ft 166 kts 158°
2026-04-19 04:38 39.37241 23.52348 4204 ft 164 kts 158°
2026-04-19 04:38 39.36175 23.52866 3919 ft 163 kts 158°
2026-04-19 04:38 39.35114 23.53376 3645 ft 162 kts 158°
2026-04-19 04:38 39.34066 23.53882 3451 ft 158 kts 158°
2026-04-19 04:39 39.33062 23.54367 3391 ft 152 kts 158°
2026-04-19 04:39 39.32072 23.54847 3282 ft 152 kts 158°
2026-04-19 04:39 39.31082 23.55324 3176 ft 152 kts 158°
2026-04-19 04:39 39.30087 23.55804 3072 ft 152 kts 158°
2026-04-19 04:40 39.29112 23.56274 2970 ft 151 kts 158°
2026-04-19 04:40 39.28127 23.56750 2868 ft 151 kts 158°
2026-04-19 04:40 39.27146 23.57223 2770 ft 150 kts 158°
2026-04-19 04:40 39.26167 23.57694 2665 ft 150 kts 158°
2026-04-19 04:41 39.25191 23.58164 2559 ft 149 kts 159°
2026-04-19 04:41 39.24218 23.58633 2461 ft 149 kts 159°
2026-04-19 04:41 39.23249 23.59100 2364 ft 149 kts 159°
2026-04-19 04:41 39.22282 23.59565 2253 ft 148 kts 159°
2026-04-19 04:42 39.21317 23.60029 2160 ft 148 kts 159°
2026-04-19 04:42 39.20349 23.60457 2053 ft 147 kts 168°
2026-04-19 04:42 39.19330 23.60341 1940 ft 149 kts 198°
2026-04-19 04:42 39.18529 23.59667 1862 ft 130 kts 225°
2026-04-19 04:43 39.18079 23.58719 1812 ft 120 kts 250°
2026-04-19 04:43 39.17959 23.57687 1790 ft 117 kts 271°
2026-04-19 04:43 39.18062 23.56638 1667 ft 122 kts 272°
2026-04-19 04:43 39.17997 23.55500 1244 ft 118 kts 264°
2026-04-19 04:44 39.18147 23.54545 953 ft 105 kts 296°
2026-04-19 04:44 39.18462 23.53667 815 ft 112 kts 288°
2026-04-19 04:44 39.18654 23.52683 681 ft 114 kts 284°
2026-04-19 04:44 39.18950 23.51726 439 ft 103 kts 284°
2026-04-19 04:45 39.18836 23.50945 268 ft 92 kts 229°
2026-04-19 04:45 39.18284 23.50617 55 ft 84 kts 201°
2026-04-19 04:45 39.17983 23.50480 41 ft 24 kts 205°
2026-04-19 04:45 39.17910 23.50354 38 ft 10 kts 244°
2026-04-19 04:46 39.17836 23.50287 39 ft 21 kts 198°
2026-04-19 04:46 39.17690 23.50243 34 ft 21 kts 191°
2026-04-19 04:46 39.17640 23.50179 31 ft 5 kts 307°